Location: Tucson
(32.2217°N, 110.9265°W)
Time: 14:06:16
(UTC-07:00)

Tiangong 2 - Visible Passes

Search period start: 23 June 2018 00:00
Search period end: 03 July 2018 00:00
Orbit: 385 x 396 km, 42.8° (Epoch: 23 June)

Date Brightness Start Highest point End Pass type
(mag) Time Alt. Az. Time Alt. Az. Time Alt. Az.
24 Jun 1.8 04:18:45 17° SSW 04:20:52 43° SE 04:23:56 10° ENE visible
25 Jun 3.0 03:23:54 21° SE 03:23:54 21° SE 03:26:02 10° E visible
26 Jun 1.1 04:01:21 31° WSW 04:02:44 79° NNW 04:05:55 10° ENE visible
27 Jun 2.6 03:06:25 32° E 03:06:25 32° E 03:08:25 10° ENE visible
27 Jun 3.0 04:39:37 10° WNW 04:42:19 24° NNW 04:45:02 10° NE visible
28 Jun 2.2 03:43:49 29° WNW 03:44:46 37° NNW 03:47:47 10° NE visible
29 Jun 3.2 02:48:51 27° NE 02:48:51 27° NE 02:50:30 10° NE visible
29 Jun 3.6 04:22:24 10° WNW 04:24:36 17° NNW 04:26:48 10° NNE visible
30 Jun 3.1 03:26:14 20° NW 03:27:01 22° NNW 03:29:37 10° NE visible
01 Jul 3.9 02:31:16 19° NNE 02:31:16 19° NNE 02:32:28 10° NE visible
01 Jul 3.9 04:05:21 10° NW 04:07:02 13° N 04:08:44 10° NNE visible
02 Jul 3.7 03:08:40 15° NNW 03:09:27 16° NNW 03:11:33 10° NNE visible
02 Jul 4.1 04:45:38 10° NNW 04:47:13 13° N 04:48:49 10° NE visible
